Eindhoven, Netherlands

7:08 AM CET on December 16, 2017 (GMT +0100)
Eindhoven Air Base

Weather History for EHEH - June, 2013

Change the Weather History Date:

Saturday, June 22, 2013

  Actual Average Record
Temperature  
Mean Temperature 63 °F -  
Max Temperature 70 °F 70 °F 95 °F (2017)
Min Temperature 56 °F 53 °F 41 °F (1999)
Degree Days  
Heating Degree Days 2    
Growing Degree Days 13 (Base 50)    
Moisture  
Dew Point 56 °F    
Average Humidity 81    
Maximum Humidity 94    
Minimum Humidity 51    
Precipitation  
Precipitation 0.08 in - - ()
Sea Level Pressure  
Sea Level Pressure 29.87 in    
Wind  
Wind Speed 11 mph ()    
Max Wind Speed 24 mph    
Max Gust Speed 39 mph    
Visibility 6.1 miles    
Events Rain    
Averages and records for this station are not official NWS values.
T = Trace of Precipitation, MM = Missing Value Source: Averaged Metar Reports

Daily Weather History Graph

Daily Weather History Graph

Search for Another Location

Airport or City:

Trip Planner

Search our weather history database for the weather conditions in past years. The results will help you decide how hot, cold, wet, or windy it might be!

Date:

Astronomy

Jun. 22, 2013 Rise Set
Actual Time 5:21 AM CEST 9:59 PM CEST
Civil Twilight 4:33 AM CEST 10:46 PM CEST
Nautical Twilight 3:19 AM CEST 12:00 AM CEST
Astronomical Twilight 2:12 AM CEST 1:08 AM CEST
Moon 8:49 PM CEST (6/22) 4:27 AM CEST (6/22)
Length of Visible Light 18h 13m
Length of Day
16h 37m
Waxing Gibbous, 98% of the Moon is Illuminated
Jun 22
Waxing Gibbous
Jun 23
Full
Jun 30
Last Quarter
Jul 8
New
Jul 16
First Quarter

Hourly Weather History & Observations

Time (CEST) Temp. Dew Point Humidity Pressure Visibility Wind Dir Wind Speed Gust Speed Precip Events Conditions
12:09 AM 57.2 °F 53.6 °F 88% 29.95 in 3.1 mi South 6.9 mph - N/A   Mist
12:10 AM 57.2 °F 53.6 °F 88% 29.95 in 6.2 mi South 6.9 mph - N/A   Unknown
12:25 AM 57.2 °F 53.6 °F 88% 29.95 in 6.2 mi South 6.9 mph - N/A   Partly Cloudy
12:55 AM 59.0 °F 55.4 °F 88% 29.95 in 6.2 mi South 9.2 mph - N/A   Mostly Cloudy
1:04 AM 59.0 °F 55.4 °F 88% 29.95 in 6.2 mi South 8.1 mph - N/A   Partly Cloudy
1:25 AM 59.0 °F 55.4 °F 88% 29.95 in 6.2 mi South 8.1 mph - N/A   Partly Cloudy
1:55 AM 59.0 °F 55.4 °F 88% 29.95 in 6.2 mi South 8.1 mph - N/A   Mostly Cloudy
2:00 AM 58 °F 55 °F 85% 29.96 in 19 mi South 8.9 mph - -   Partly Cloudy
2:25 AM 59.0 °F 55.4 °F 88% 29.95 in 6.2 mi SSW 10.4 mph - N/A   Unknown
2:48 AM 59.0 °F 55.4 °F 88% 29.95 in 6.2 mi SSW 9.2 mph - N/A   Mostly Cloudy
2:55 AM 59.0 °F 55.4 °F 88% 29.95 in 6.2 mi SSW 9.2 mph - N/A   Mostly Cloudy
3:09 AM 59.0 °F 55.4 °F 88% 29.95 in 6.2 mi SSW 9.2 mph - N/A   Scattered Clouds
3:20 AM 59.0 °F 55.4 °F 88% 29.95 in 6.2 mi SSW 9.2 mph - N/A   Mostly Cloudy
3:25 AM 59.0 °F 55.4 °F 88% 29.95 in 6.2 mi SSW 9.2 mph - N/A   Mostly Cloudy
3:29 AM 59.0 °F 55.4 °F 88% 29.95 in 6.2 mi SSW 9.2 mph - N/A   Scattered Clouds
3:55 AM 57.2 °F 55.4 °F 94% 29.95 in 6.2 mi SSW 9.2 mph - N/A   Partly Cloudy
4:25 AM 57.2 °F 55.4 °F 94% 29.92 in 6.2 mi SSW 8.1 mph - N/A   Unknown
4:55 AM 57.2 °F 55.4 °F 94% 29.92 in 6.2 mi SSW 8.1 mph - N/A   Partly Cloudy
5:00 AM 57 °F 55 °F 92% 29.95 in 12 mi SSW 6.7 mph - -   Scattered Clouds
5:03 AM 57.2 °F 55.4 °F 94% 29.92 in 3.7 mi SSW 8.1 mph - N/A   Scattered Clouds
5:09 AM 57.2 °F 55.4 °F 94% 29.92 in 6.2 mi SSW 8.1 mph - N/A   Scattered Clouds
5:16 AM 57.2 °F 55.4 °F 94% 29.92 in 3.1 mi SSW 6.9 mph - N/A   Mostly Cloudy
5:17 AM 57.2 °F 55.4 °F 94% 29.92 in 6.2 mi SSW 6.9 mph - N/A   Scattered Clouds
5:25 AM 57.2 °F 55.4 °F 94% 29.92 in 6.2 mi SSW 6.9 mph - N/A   Partly Cloudy
5:38 AM 57.2 °F 55.4 °F 94% 29.92 in 6.2 mi South 5.8 mph - N/A   Unknown
5:55 AM 57.2 °F 55.4 °F 94% 29.92 in 6.2 mi South 6.9 mph - N/A   Unknown
6:25 AM 57.2 °F 55.4 °F 94% 29.92 in 6.2 mi South 6.9 mph - N/A   Partly Cloudy
6:29 AM 59.0 °F 55.4 °F 88% 29.92 in 6.2 mi South 8.1 mph - N/A   Scattered Clouds
6:33 AM 59.0 °F 57.2 °F 94% 29.92 in 6.2 mi South 8.1 mph - N/A   Mostly Cloudy
6:55 AM 59.0 °F 57.2 °F 94% 29.92 in 6.2 mi South 6.9 mph - N/A   Scattered Clouds
6:59 AM 60.8 °F 57.2 °F 88% 29.92 in 6.2 mi South 8.1 mph - N/A   Mostly Cloudy
7:25 AM 60.8 °F 57.2 °F 88% 29.92 in 6.2 mi SSW 8.1 mph - N/A   Overcast
7:33 AM 60.8 °F 57.2 °F 88% 29.92 in 6.2 mi SSW 9.2 mph - N/A   Overcast
7:55 AM 60.8 °F 57.2 °F 88% 29.92 in 6.2 mi South 8.1 mph - N/A   Overcast
8:00 AM 61 °F 57 °F 81% 29.93 in 28 mi SSW 8.9 mph - -   Partly Cloudy
8:25 AM 62.6 °F 57.2 °F 82% 29.92 in 6.2 mi SSW 8.1 mph - N/A   Mostly Cloudy
8:55 AM 62.6 °F 57.2 °F 82% 29.92 in 6.2 mi SSW 10.4 mph - N/A   Overcast
9:16 AM 64.4 °F 57.2 °F 77% 29.92 in 6.2 mi South 9.2 mph - N/A   Overcast
9:25 AM 64.4 °F 57.2 °F 77% 29.92 in 6.2 mi South 10.4 mph - N/A   Overcast
9:39 AM 64.4 °F 55.4 °F 73% 29.92 in 6.2 mi SSW 11.5 mph - N/A   Partly Cloudy
9:50 AM 66.2 °F 55.4 °F 68% 29.92 in 6.2 mi SSW 12.7 mph - N/A   Scattered Clouds
9:55 AM 66.2 °F 55.4 °F 68% 29.92 in 6.2 mi SSW 15.0 mph - N/A   Mostly Cloudy
10:09 AM 66.2 °F 55.4 °F 68% 29.89 in 6.2 mi SSW 16.1 mph - N/A   Mostly Cloudy
10:16 AM 66.2 °F 55.4 °F 68% 29.89 in 6.2 mi South 17.3 mph - N/A   Mostly Cloudy
10:25 AM 66.2 °F 55.4 °F 68% 29.89 in 6.2 mi SSW 15.0 mph - N/A   Mostly Cloudy
10:29 AM 66.2 °F 55.4 °F 68% 29.89 in 6.2 mi SSW 16.1 mph - N/A   Mostly Cloudy
10:32 AM 68.0 °F 57.2 °F 68% 29.89 in 6.2 mi SSW 16.1 mph - N/A   Mostly Cloudy
10:55 AM 68.0 °F 55.4 °F 64% 29.89 in 6.2 mi SSW 15.0 mph - N/A   Mostly Cloudy
11:00 AM 70 °F 56 °F 51% 29.89 in 25 mi SSW 15.7 mph - -   Scattered Clouds
11:25 AM 66.2 °F 55.4 °F 68% 29.89 in 6.2 mi SSW 15.0 mph - N/A   Mostly Cloudy
11:55 AM 69.8 °F 57.2 °F 64% 29.86 in 6.2 mi SSW 12.7 mph - N/A   Mostly Cloudy
12:25 PM 68.0 °F 55.4 °F 64% 29.86 in 6.2 mi SSW 18.4 mph - N/A   Mostly Cloudy
12:55 PM 69.8 °F 55.4 °F 60% 29.86 in 6.2 mi SSW 16.1 mph - N/A   Mostly Cloudy
1:25 PM 68.0 °F 55.4 °F 64% 29.86 in 6.2 mi SSW 24.2 mph 39.1 mph N/A   Mostly Cloudy
1:55 PM 68.0 °F 55.4 °F 64% 29.86 in 6.2 mi SSW 23.0 mph - N/A   Mostly Cloudy
2:00 PM 67 °F 53 °F 52% 29.86 in 22 mi SSW 20.1 mph - - Rain Rain
2:25 PM 66.2 °F 53.6 °F 64% 29.86 in 6.2 mi SSW 19.6 mph - N/A   Overcast
2:55 PM 66.2 °F 51.8 °F 60% 29.86 in 6.2 mi SW 19.6 mph - N/A   Overcast
3:05 PM 66.2 °F 51.8 °F 60% 29.86 in 6.2 mi SW 23.0 mph - N/A   Overcast
3:06 PM 64.4 °F 51.8 °F 64% 29.86 in 6.2 mi SW 21.9 mph - N/A   Overcast
3:07 PM 64.4 °F 51.8 °F 64% 29.86 in 6.2 mi SW 21.9 mph - N/A   Overcast
3:25 PM 64.4 °F 51.8 °F 64% 29.86 in 6.2 mi SSW 20.7 mph - N/A   Overcast
3:34 PM 64.4 °F 51.8 °F 64% 29.86 in 6.2 mi SSW 18.4 mph - N/A   Overcast
3:45 PM 64.4 °F 53.6 °F 68% 29.86 in 6.2 mi SW 23.0 mph - N/A   Overcast
3:55 PM 64.4 °F 53.6 °F 68% 29.86 in 4.3 mi SW 19.6 mph - N/A   Haze
4:00 PM 62.6 °F 53.6 °F 72% 29.86 in 6.2 mi SW 20.7 mph - N/A   Mostly Cloudy
4:04 PM 62.6 °F 55.4 °F 77% 29.86 in 3.7 mi SW 20.7 mph - N/A   Haze
4:12 PM 62.6 °F 57.2 °F 82% 29.86 in 5.6 mi SW 17.3 mph - N/A   Haze
4:25 PM 62.6 °F 55.4 °F 77% 29.86 in 6.2 mi SW 16.1 mph - N/A   Overcast
4:29 PM 64.4 °F 57.2 °F 77% 29.86 in 6.2 mi SW 17.3 mph - N/A   Overcast
4:37 PM 64.4 °F 57.2 °F 77% 29.86 in 4.3 mi SW 16.1 mph - N/A   Haze
4:42 PM 62.6 °F 55.4 °F 77% 29.86 in 6.2 mi SSW 15.0 mph 26.5 mph N/A   Mostly Cloudy
4:46 PM 62.6 °F 55.4 °F 77% 29.86 in 6.2 mi SSW 17.3 mph - N/A   Mostly Cloudy
4:55 PM 62.6 °F 55.4 °F 77% 29.86 in 6.2 mi SSW 18.4 mph - N/A   Mostly Cloudy
4:59 PM 62.6 °F 55.4 °F 77% 29.86 in 6.2 mi SSW 18.4 mph - N/A   Mostly Cloudy
5:00 PM 62 °F 55 °F 72% 29.86 in 19 mi SSW 15.7 mph - -   Partly Cloudy
5:07 PM 62.6 °F 55.4 °F 77% 29.86 in 6.2 mi SSW 16.1 mph - N/A   Mostly Cloudy
5:11 PM 62.6 °F 55.4 °F 77% 29.86 in 6.2 mi SSW 15.0 mph - N/A   Mostly Cloudy
5:25 PM 64.4 °F 55.4 °F 73% 29.83 in 6.2 mi SSW 15.0 mph - N/A   Overcast
5:32 PM 66.2 °F 57.2 °F 73% 29.83 in 6.2 mi SSW 15.0 mph - N/A   Mostly Cloudy
5:37 PM 66.2 °F 55.4 °F 68% 29.83 in 6.2 mi SSW 15.0 mph - N/A   Mostly Cloudy
5:46 PM 64.4 °F 55.4 °F 73% 29.83 in 6.2 mi SSW 18.4 mph - N/A   Mostly Cloudy
5:55 PM 64.4 °F 53.6 °F 68% 29.83 in 6.2 mi SSW 18.4 mph - N/A   Overcast
6:12 PM 64.4 °F 55.4 °F 73% 29.83 in 6.2 mi SSW 17.3 mph 28.8 mph N/A   Overcast
6:16 PM 62.6 °F 55.4 °F 77% 29.83 in 3.7 mi SW 19.6 mph - N/A   Drizzle
6:25 PM 62.6 °F 57.2 °F 82% 29.83 in 6.2 mi SW 20.7 mph - N/A Rain Light Rain
6:30 PM 62.6 °F 57.2 °F 82% 29.83 in 3.7 mi SW 17.3 mph - N/A   Haze
6:34 PM 62.6 °F 55.4 °F 77% 29.83 in 5.0 mi SSW 18.4 mph - N/A Rain Light Rain
6:42 PM 62.6 °F 57.2 °F 82% 29.83 in 6.2 mi SSW 18.4 mph - N/A   Overcast
6:51 PM 62.6 °F 55.4 °F 77% 29.83 in 6.2 mi SSW 18.4 mph - N/A Rain Light Drizzle
6:55 PM 60.8 °F 55.4 °F 82% 29.83 in 6.2 mi SSW 18.4 mph - N/A   Drizzle
7:03 PM 60.8 °F 57.2 °F 88% 29.83 in 6.2 mi SSW 16.1 mph - N/A   Light Drizzle
7:09 PM 62.6 °F 57.2 °F 82% 29.83 in 6.2 mi SSW 16.1 mph - N/A   Light Drizzle
7:13 PM 60.8 °F 57.2 °F 88% 29.83 in 3.7 mi SSW 17.3 mph - N/A   Mostly Cloudy
7:19 PM 60.8 °F 57.2 °F 88% 29.83 in 6.2 mi SSW 16.1 mph - N/A   Mostly Cloudy
7:25 PM 60.8 °F 57.2 °F 88% 29.83 in 3.7 mi SSW 16.1 mph - N/A Rain Light Rain
7:29 PM 60.8 °F 57.2 °F 88% 29.83 in 6.2 mi SSW 16.1 mph - N/A   Drizzle
7:36 PM 60.8 °F 57.2 °F 88% 29.83 in 3.7 mi SSW 13.8 mph - N/A   Drizzle
7:46 PM 60.8 °F 57.2 °F 88% 29.83 in 5.0 mi SSW 17.3 mph - N/A   Heavy Drizzle
7:47 PM 60.8 °F 57.2 °F 88% 29.80 in 6.2 mi SSW 17.3 mph - N/A   Heavy Drizzle
7:55 PM 60.8 °F 57.2 °F 88% 29.80 in 6.2 mi SSW 15.0 mph - N/A   Overcast
8:00 PM 61 °F 57 °F 82% 29.82 in 28 mi South 13.4 mph - - Rain Rain
8:00 PM 60.8 °F 57.2 °F 88% 29.80 in 6.2 mi SSW 13.8 mph - N/A   Overcast
8:04 PM 60.8 °F 57.2 °F 88% 29.80 in 6.2 mi South 13.8 mph 25.3 mph N/A   Overcast
8:14 PM 60.8 °F 57.2 °F 88% 29.80 in 6.2 mi South 15.0 mph - N/A   Mostly Cloudy
8:25 PM 60.8 °F 57.2 °F 88% 29.80 in 6.2 mi SSW 15.0 mph - N/A Rain Light Rain
8:29 PM 60.8 °F 57.2 °F 88% 29.80 in 6.2 mi SSW 13.8 mph - N/A Rain Light Rain
8:35 PM 60.8 °F 57.2 °F 88% 29.80 in 6.2 mi South 13.8 mph - N/A Rain Light Rain
8:55 PM 60.8 °F 57.2 °F 88% 29.80 in 6.2 mi South 15.0 mph - N/A   Overcast
9:25 PM 60.8 °F 57.2 °F 88% 29.80 in 6.2 mi South 12.7 mph - N/A   Mostly Cloudy
9:49 PM 60.8 °F 57.2 °F 88% 29.80 in 4.3 mi South 15.0 mph - N/A Rain Light Rain
9:55 PM 60.8 °F 57.2 °F 88% 29.80 in 6.2 mi SSW 15.0 mph - N/A   Heavy Drizzle
10:02 PM 59.0 °F 57.2 °F 94% 29.80 in 3.1 mi SSW 15.0 mph - N/A Rain Heavy Rain Showers
10:10 PM 59.0 °F 57.2 °F 94% 29.80 in 5.0 mi SW 18.4 mph - N/A Rain Rain Showers
10:14 PM 59.0 °F 57.2 °F 94% 29.80 in 6.2 mi SW 17.3 mph - N/A Rain Light Rain
10:25 PM 59.0 °F 57.2 °F 94% 29.83 in 6.2 mi SW 11.5 mph - N/A   Drizzle
10:32 PM 57.2 °F 55.4 °F 94% 29.83 in 6.2 mi SW 11.5 mph - N/A   Drizzle
10:55 PM 57.2 °F 55.4 °F 94% 29.83 in 6.2 mi SW 12.7 mph - N/A Rain Drizzle
10:58 PM 57.2 °F 55.4 °F 94% 29.83 in 6.2 mi SSW 11.5 mph - N/A Rain Light Rain
11:00 PM 57 °F 55 °F 92% 29.84 in 8 mi SSW 11.2 mph - - Rain Heavy Rain
11:11 PM 57.2 °F 55.4 °F 94% 29.83 in 3.7 mi SSW 10.4 mph - N/A   Drizzle
11:15 PM 57.2 °F 55.4 °F 94% 29.83 in 5.6 mi SSW 10.4 mph - N/A Rain Rain
11:25 PM 57.2 °F 55.4 °F 94% 29.83 in 6.2 mi SSW 13.8 mph - N/A   Light Drizzle
11:55 PM 57.2 °F 55.4 °F 94% 29.80 in 6.2 mi SSW 11.5 mph - N/A Rain Light Rain